COSMOS 1470

导读

COSMOS 1470(宇宙1470)是苏联(CIS)于1983年6月23日发射的“宇宙”系列卫星,延续了该系列兼具科研试测与潜在军事用途的传统。其运行在倾角82.5°的近地轨道,轨道高度约436-446千米,作为苏联航天计划的常态化部署,主要承担技术验证与空间环境探测任务,至今仍保持轨道运行,可被地面观测到过境信息。

基本信息
目录编号:
14147
目录名称:
COSMOS 1470
国际标识:
1983-061A
轨道中心:
EARTH
卫星名称:
COSMOS 1470
卫星全名:
--
卫星状态:
在轨 (已飞行15780 天)
发射日期:
1983-06-23 UTC
国别 :
俄罗斯(独联体) (CIS)
星等 :
--
轨道信息
数据来源 国际轨道数据
星历时间: 2026-09-05T12:52:14+0800
8小时前
查看轨道信息
半长轴: 6795.379km
偏心率: 0.0008077
轨道倾角: 82.465°
近地点辐角 79.688°
升交点赤经 290.465°
平近点角 280.529°
近地点: 411.753km
远地点: 422.731km
周期: 92.914分钟
每日圈数: 15.498237
详细信息
使用方式:
暂无
2D轨道图
3D轨道图
轨道高度分析图
轨道倾角分析图
轨道综合分析图
查看轨道综合分析图
交会数据列表
事件ID 空间交会对象 最接近时刻(TCA) 交会距离 交会风险概率(CRP) 交会风险指数(CRI) 操作
CDM_260906-100601-414704-814322
2026-09-06T
10:06:54+0000
2.138 km
极远距离
1.428209E-6 低风险 0.38